Weather History for Thermopolis, WY

Change the Weather History Date:

Wednesday, January 23, 2013

  Actual Average (KWRL) Record (KWRL)
Temperature  
Mean Temperature 38 °F 18 °F  
Max Temperature 42 °F 31 °F 58 °F (1981)
Min Temperature 33 °F 4 °F -28 °F (1963)
Degree Days  
Heating Degree Days 28 47  
Month to date heating degree days 1112  
Since 1 July heating degree days 4475  
Cooling Degree Days 0 0  
Month to date cooling degree days 0  
Year to date cooling degree days 0  
Moisture  
Dew Point -3 °F    
Average Humidity 18    
Maximum Humidity 32    
Minimum Humidity 11    
Precipitation  
Precipitation 0.00 in 0.00 in 0.17 in (2010)
Month to date precipitation 0.17  
Year to date precipitation 0.17  
Sea Level Pressure  
Sea Level Pressure 30.17 in    
Wind  
Wind Speed 17 mph (SSW)    
Max Wind Speed 30 mph    
Max Gust Speed 34 mph    
Visibility 10 miles    
Events      
T = Trace of Precipitation, MM = Missing Value Source: NWS Daily Summary

Daily Weather History Graph

Daily Weather History Graph

Search for Another Location

Airport:

Trip Planner

Search our weather history database for the weather conditions in past years. The results will help you decide how hot, cold, wet, or windy it might be!

Date:

Astronomy

Jan. 23, 2013 Rise Set
Actual Time 7:37 AM MST 5:12 PM MST
Civil Twilight 7:06 AM MST 5:44 PM MST
Nautical Twilight 6:31 AM MST 6:18 PM MST
Astronomical Twilight 5:57 AM MST 6:52 PM MST
Moon 2:24 PM MST (1/23) 4:52 AM MST (1/23)
Length of Visible Light 10h 37m
Length of Day
9h 35m
Waxing Gibbous, 89% of the Moon is Illuminated
Jan 23
Waxing Gibbous
Jan 26
Full
Feb 3
Last Quarter
Feb 10
New
Feb 17
First Quarter

Hourly Weather History & Observations

Time (MST) Temp. Windchill Dew Point Humidity Pressure Visibility Wind Dir Wind Speed Gust Speed Precip Events Conditions
12:15 AM 42.8 °F 33.5 °F -9.4 °F 11% 30.20 in 10.0 mi SSW 23.0 mph 29.9 mph N/A   Clear
12:35 AM 41.0 °F 31.1 °F -7.6 °F 13% 30.19 in 10.0 mi SSW 23.0 mph 31.1 mph N/A   Clear
12:55 AM 41.0 °F 31.6 °F -7.6 °F 13% 30.19 in 10.0 mi SSW 20.7 mph 26.5 mph N/A   Clear
1:15 AM 39.2 °F 29.6 °F -5.8 °F 15% 30.18 in 10.0 mi SSW 19.6 mph 24.2 mph N/A   Clear
1:35 AM 41.0 °F 31.6 °F -5.8 °F 14% 30.18 in 10.0 mi SSW 20.7 mph 28.8 mph N/A   Clear
1:55 AM 39.2 °F 29.6 °F -7.6 °F 14% 30.19 in 10.0 mi SSW 19.6 mph 26.5 mph N/A   Clear
2:15 AM 37.4 °F 27.8 °F -5.8 °F 16% 30.19 in 10.0 mi South 17.3 mph 25.3 mph N/A   Clear
2:35 AM 37.4 °F 27.2 °F -4.0 °F 17% 30.19 in 10.0 mi SSW 19.6 mph - N/A   Clear
2:55 AM 39.2 °F 28.3 °F -4.0 °F 16% 30.19 in 10.0 mi SSW 25.3 mph 29.9 mph N/A   Clear
3:15 AM 41.0 °F 30.7 °F -4.0 °F 15% 30.19 in 10.0 mi SSW 25.3 mph 32.2 mph N/A   Clear
3:35 AM 42.8 °F 32.5 °F -5.8 °F 13% 30.19 in 10.0 mi SSW 28.8 mph 32.2 mph N/A   Clear
3:55 AM 41.0 °F 30.7 °F -4.0 °F 15% 30.18 in 10.0 mi SSW 25.3 mph - N/A   Clear
4:15 AM 39.2 °F 27.4 °F -4.0 °F 16% 30.16 in 10.0 mi SSW 29.9 mph 34.5 mph N/A   Clear
4:35 AM 39.2 °F 28.5 °F -0.4 °F 19% 30.17 in 10.0 mi SSW 24.2 mph 33.4 mph N/A   Clear
4:55 AM 39.2 °F 29.3 °F -0.4 °F 19% 30.17 in 10.0 mi SSW 20.7 mph 32.2 mph N/A   Clear
5:15 AM 35.6 °F 25.2 °F -2.2 °F 20% 30.17 in 10.0 mi South 18.4 mph 24.2 mph N/A   Clear
5:35 AM 35.6 °F 24.8 °F -4.0 °F 18% 30.17 in 10.0 mi SSW 19.6 mph - N/A   Clear
5:55 AM 35.6 °F - -0.4 °F 22% 30.18 in 10.0 mi Calm Calm - N/A   Clear
6:15 AM 39.2 °F 33.0 °F -7.6 °F 14% 30.18 in 10.0 mi SW 9.2 mph - N/A   Clear
6:35 AM 41.0 °F 33.5 °F -9.4 °F 12% 30.19 in 10.0 mi SW 13.8 mph 20.7 mph N/A   Clear
6:55 AM 39.2 °F 31.6 °F -9.4 °F 12% 30.20 in 10.0 mi SW 12.7 mph - N/A   Clear
7:15 AM 39.2 °F 30.5 °F -7.6 °F 14% 30.20 in 10.0 mi SSW 16.1 mph - N/A   Clear
7:35 AM 37.4 °F 29.3 °F -5.8 °F 16% 30.20 in 10.0 mi SW 12.7 mph - N/A   Clear
7:55 AM 39.2 °F 32.5 °F -5.8 °F 15% 30.20 in 10.0 mi WSW 10.4 mph - N/A   Clear
8:15 AM 39.2 °F 31.6 °F -4.0 °F 16% 30.20 in 10.0 mi WSW 12.7 mph - N/A   Clear
8:35 AM 41.0 °F 34.3 °F -5.8 °F 14% 30.20 in 10.0 mi SW 11.5 mph - N/A   Clear
8:55 AM 41.0 °F 33.9 °F -7.6 °F 13% 30.20 in 10.0 mi WSW 12.7 mph - N/A   Clear
9:15 AM 42.8 °F 36.2 °F -9.4 °F 11% 30.20 in 10.0 mi SW 12.7 mph - N/A   Clear
9:35 AM 41.0 °F 34.3 °F -7.6 °F 13% 30.20 in 10.0 mi SW 11.5 mph - N/A   Clear
9:55 AM 39.2 °F 33.6 °F -5.8 °F 15% 30.21 in 10.0 mi South 8.1 mph 16.1 mph N/A   Clear
10:15 AM 37.4 °F 30.3 °F -5.8 °F 16% 30.20 in 10.0 mi South 10.4 mph - N/A   Clear
10:35 AM 39.2 °F 32.0 °F -5.8 °F 15% 30.21 in 10.0 mi South 11.5 mph 17.3 mph N/A   Clear
10:55 AM 39.2 °F 32.0 °F -5.8 °F 15% 30.21 in 10.0 mi South 11.5 mph - N/A   Clear
11:15 AM 37.4 °F 29.8 °F -4.0 °F 17% 30.21 in 10.0 mi South 11.5 mph - N/A   Clear
11:35 AM 41.0 °F 32.8 °F -4.0 °F 15% 30.22 in 10.0 mi South 16.1 mph - N/A   Clear
11:55 AM 42.8 °F 35.1 °F 1.4 °F 18% 30.21 in 10.0 mi South 16.1 mph 20.7 mph N/A   Clear
12:15 PM 41.0 °F 33.5 °F -2.2 °F 16% 30.20 in 10.0 mi South 13.8 mph - N/A   Clear
12:35 PM 41.0 °F 33.9 °F 1.4 °F 19% 30.18 in 10.0 mi South 12.7 mph 18.4 mph N/A   Clear
12:55 PM 42.8 °F 34.8 °F -0.4 °F 16% 30.18 in 10.0 mi SSW 17.3 mph - N/A   Clear
1:15 PM 42.8 °F 35.8 °F -0.4 °F 16% 30.18 in 10.0 mi SW 13.8 mph - N/A   Clear
1:35 PM 42.8 °F 41.1 °F 1.4 °F 18% 30.18 in 10.0 mi SSE 3.5 mph - N/A   Clear
1:55 PM 42.8 °F 34.8 °F -2.2 °F 15% 30.17 in 10.0 mi SW 17.3 mph 24.2 mph N/A   Clear
2:15 PM 35.6 °F 29.2 °F -2.2 °F 20% 30.17 in 10.0 mi SSE 8.1 mph - N/A   Clear
2:35 PM 39.2 °F 33.6 °F -5.8 °F 15% 30.16 in 10.0 mi SE 8.1 mph - N/A   Clear
2:55 PM 35.6 °F 29.2 °F -4.0 °F 18% 30.18 in 10.0 mi SE 8.1 mph - N/A   Clear
3:15 PM 39.2 °F 32.5 °F -7.6 °F 14% 30.17 in 10.0 mi SE 10.4 mph - N/A   Clear
3:35 PM 39.2 °F 33.6 °F -5.8 °F 15% 30.17 in 10.0 mi SSE 8.1 mph - N/A   Clear
3:55 PM 39.2 °F 34.2 °F -5.8 °F 15% 30.16 in 10.0 mi SE 6.9 mph - N/A   Clear
4:15 PM 41.0 °F 37.1 °F -4.0 °F 15% 30.17 in 10.0 mi SE 5.8 mph - N/A   Clear
4:35 PM 41.0 °F 37.1 °F -5.8 °F 14% 30.16 in 10.0 mi SE 5.8 mph - N/A   Clear
4:55 PM 39.2 °F 33.6 °F -4.0 °F 16% 30.17 in 10.0 mi South 8.1 mph - N/A   Clear
5:15 PM 41.0 °F 34.7 °F -2.2 °F 16% 30.16 in 10.0 mi SSE 10.4 mph - N/A   Clear
5:35 PM 37.4 °F 28.9 °F -0.4 °F 20% 30.15 in 10.0 mi SE 13.8 mph - N/A   Clear
5:55 PM 33.8 °F 24.3 °F 3.2 °F 28% 30.15 in 10.0 mi SE 13.8 mph 21.9 mph N/A   Clear
6:15 PM 33.8 °F 25.3 °F 5.0 °F 30% 30.15 in 10.0 mi SE 11.5 mph - N/A   Clear
6:35 PM 35.6 °F 28.6 °F 3.2 °F 26% 30.16 in 10.0 mi SE 9.2 mph - N/A   Clear
6:55 PM 37.4 °F 30.8 °F -0.4 °F 20% 30.16 in 10.0 mi SSW 9.2 mph - N/A   Clear
7:15 PM 41.0 °F 34.7 °F -2.2 °F 16% 30.16 in 10.0 mi SSW 10.4 mph - N/A   Clear
7:35 PM 41.0 °F 33.9 °F -0.4 °F 18% 30.16 in 10.0 mi SW 12.7 mph 19.6 mph N/A   Clear
7:55 PM 41.0 °F 35.8 °F -0.4 °F 18% 30.16 in 10.0 mi SSW 8.1 mph 24.2 mph N/A   Clear
8:15 PM 39.2 °F 30.2 °F 1.4 °F 21% 30.16 in 10.0 mi SSW 17.3 mph - N/A   Clear
8:35 PM 39.2 °F 32.0 °F 3.2 °F 22% 30.16 in 10.0 mi SW 11.5 mph - N/A   Clear
8:55 PM 39.2 °F 30.5 °F 3.2 °F 22% 30.15 in 10.0 mi SW 16.1 mph 21.9 mph N/A   Clear
9:15 PM 37.4 °F 26.6 °F 5.0 °F 26% 30.15 in 10.0 mi SSW 21.9 mph 29.9 mph N/A   Clear
9:35 PM 39.2 °F 28.0 °F 5.0 °F 24% 30.12 in 10.0 mi SSW 26.5 mph 32.2 mph N/A   Clear
9:55 PM 39.2 °F 29.6 °F 3.2 °F 22% 30.13 in 10.0 mi SSW 19.6 mph - N/A   Clear
10:15 PM 39.2 °F 30.2 °F 1.4 °F 21% 30.13 in 10.0 mi SSW 17.3 mph - N/A   Clear
10:35 PM 37.4 °F 30.3 °F 1.4 °F 22% 30.14 in 10.0 mi South 10.4 mph 23.0 mph N/A   Clear
10:55 PM 35.6 °F 27.1 °F 5.0 °F 28% 30.13 in 10.0 mi SSE 12.7 mph - N/A   Clear
11:15 PM 33.8 °F 23.9 °F 6.8 °F 32% 30.13 in 10.0 mi SSE 15.0 mph 19.6 mph N/A   Clear
11:35 PM 37.4 °F 27.2 °F 5.0 °F 26% 30.12 in 10.0 mi South 19.6 mph 29.9 mph N/A   Clear
11:55 PM 35.6 °F 24.8 °F 5.0 °F 28% 30.12 in 10.0 mi South 19.6 mph 25.3 mph N/A   Clear